Weather History for Lancaster, PA

Change the Weather History Date:

Sunday, May 11, 2014

  Actual Average Record
Temperature  
Mean Temperature 65 °F -  
Max Temperature 75 °F 73 °F 88 °F (1979)
Min Temperature 55 °F 48 °F 35 °F (1983)
Growing Degree Days 15 (Base 50)    
Moisture  
Dew Point 51 °F    
Average Humidity 63    
Maximum Humidity 93    
Minimum Humidity 38    
Precipitation  
Precipitation 0.00 in - - ()
Sea Level Pressure  
Sea Level Pressure 30.06 in    
Wind  
Wind Speed 6 mph (WNW)    
Max Wind Speed 12 mph    
Max Gust Speed -    
Visibility 10 miles    
Events      
Averages and records for this station are not official NWS values.
T = Trace of Precipitation, MM = Missing Value Source: NWS Daily Summary

Daily Weather History Graph

Daily Weather History Graph

Search for Another Location

Airport:

Trip Planner

Search our weather history database for the weather conditions in past years. The results will help you decide how hot, cold, wet, or windy it might be!

Date:

Astronomy

May. 11, 2014 Rise Set
Actual Time 5:53 AM EDT 8:10 PM EDT
Civil Twilight 5:23 AM EDT 8:40 PM EDT
Nautical Twilight 4:45 AM EDT 9:18 PM EDT
Astronomical Twilight 4:04 AM EDT 9:59 PM EDT
Moon 5:03 PM EDT (5/11) 3:57 AM EDT (5/11)
Length of Visible Light 15h 17m
Length of Day
14h 16m
Waxing Gibbous, 89% of the Moon is Illuminated
May 11
Waxing Gibbous
May 14
Full
May 21
Last Quarter
May 28
New
Jun 5
First Quarter

Hourly Weather History & Observations

Time (EDT) Temp. Dew Point Humidity Pressure Visibility Wind Dir Wind Speed Gust Speed Precip Events Conditions
12:53 AM 61.0 °F 59.0 °F 93% 29.96 in 10.0 mi West 6.9 mph - N/A   Scattered Clouds
1:53 AM 60.1 °F 57.9 °F 93% 29.96 in 10.0 mi West 8.1 mph - N/A   Mostly Cloudy
2:53 AM 59.0 °F 55.9 °F 90% 29.96 in 10.0 mi West 6.9 mph - N/A   Clear
3:53 AM 57.0 °F 55.0 °F 93% 29.98 in 10.0 mi West 4.6 mph - N/A   Clear
4:53 AM 55.9 °F 54.0 °F 93% 30.00 in 10.0 mi West 4.6 mph - N/A   Clear
5:53 AM 55.0 °F 53.1 °F 93% 30.01 in 10.0 mi WNW 5.8 mph - N/A   Clear
6:53 AM 55.9 °F 54.0 °F 93% 30.06 in 8.0 mi West 6.9 mph - N/A   Clear
7:53 AM 62.1 °F 55.0 °F 78% 30.09 in 10.0 mi WNW 8.1 mph - N/A   Clear
8:53 AM 64.0 °F 50.0 °F 60% 30.09 in 10.0 mi WNW 8.1 mph - N/A   Clear
9:53 AM 66.9 °F 50.0 °F 54% 30.10 in 10.0 mi NW 8.1 mph - N/A   Clear
10:53 AM 70.0 °F 48.9 °F 47% 30.10 in 10.0 mi WNW 11.5 mph - N/A   Clear
11:53 AM 71.1 °F 50.0 °F 47% 30.11 in 10.0 mi WNW 11.5 mph - N/A   Clear
12:53 PM 72.0 °F 48.0 °F 43% 30.10 in 10.0 mi WNW 5.8 mph - N/A   Clear
2:53 PM 75.0 °F 48.0 °F 38% 30.08 in 10.0 mi West 8.1 mph - N/A   Clear
3:53 PM 75.0 °F 48.0 °F 38% 30.07 in 10.0 mi West 10.4 mph - N/A   Clear
4:53 PM 75.0 °F 48.0 °F 38% 30.06 in 10.0 mi West 9.2 mph - N/A   Clear
5:53 PM 73.0 °F 50.0 °F 44% 30.06 in 10.0 mi WNW 4.6 mph - N/A   Clear
6:53 PM 73.9 °F 50.0 °F 43% 30.06 in 10.0 mi West 3.5 mph - N/A   Clear
7:53 PM 72.0 °F 45.0 °F 38% 30.07 in 10.0 mi WSW 4.6 mph - N/A   Clear
8:53 PM 68.0 °F 46.9 °F 47% 30.09 in 10.0 mi Calm Calm - N/A   Clear
9:53 PM 63.0 °F 50.0 °F 63% 30.09 in 10.0 mi Calm Calm - N/A   Clear
10:53 PM 63.0 °F 48.0 °F 58% 30.10 in 10.0 mi Calm Calm - N/A   Clear
11:53 PM 62.1 °F 46.9 °F 58% 30.11 in 10.0 mi Calm Calm - N/A   Clear